Regional Weather Roundup
Issued by NWS

Home | Current Version | Previous Version | Text Only | Print | Product List | Glossary Off
Versions: 1 2 3 4 5 6 7 8 9 10 11 12 13 14 15 16 17 18 19 20 21 22 23 24 25 26 27 28 29 30 31 32 33 34 35 36 37 38 39 40 41 42 43 44 45 46 47 48 49 50

000
ASUS43 KLMK 020410
RWRKY
KENTUCKY REGIONAL WEATHER ROUNDUP
NATIONAL WEATHER SERVICE LOUISVILLE KY
1100 PM EST SUN MAR 01 2015

NOTE "FAIR" INDICATES FEW OR NO CLOUDS BELOW 12,000 FEET
WITH NO SIGNIFICANT WEATHER AND/OR OBSTRUCTIONS TO VISIBILITY.

KYZ001>023-026-027-061>063-070>075-020500-
WESTERN AND SOUTH CENTRAL KENTUCKY

CITY           SKY/WX    TMP DP  RH WIND       PRES   REMARKS
PADUCAH        CLOUDY    33  28  81 N12       30.42R WCI  24
HENDERSON      CLOUDY    32  27  80 NW10      30.42R WCI  24
OWENSBORO      CLOUDY    33  30  89 N12       30.41R WCI  24
HOPKINSVILLE   CLOUDY    34  32  93 NW5       30.38S FOG     WCI  30
BOWLING GREEN  MIX PCPN  36  33  89 NW9       30.38R FOG     WCI  29
GLASGOW        HVY RAIN  37  37 100 NW3       30.34R
$$

KYZ024-025-028>034-038-045-046-053-020500-
NORTH CENTRAL KENTUCKY

CITY           SKY/WX    TMP DP  RH WIND       PRES   REMARKS
LOUISVILLE/SDF CLOUDY    35  31  85 NW10      30.36R FOG     WCI  27
LOUISVILLE/LOU CLOUDY    35  31  85 NW10      30.36R WCI  27
FORT KNOX      CLOUDY    34  31  91 NW10      30.33R WCI  26
$$

KYZ035>037-039>044-047>052-055>060-089>105-020500-
NORTHEAST KENTUCKY

CITY           SKY/WX    TMP DP  RH WIND       PRES   REMARKS
LEXINGTON      FOG       35  35 100 W5        30.30S VSB 1/2 WCI  31
COVINGTON      CLOUDY    33  29  85 W9        30.31R WCI  25
FRANKFORT      CLOUDY    34  32  92 NW7       30.31R FOG     WCI  28
$$

KYZ054-064>069-076>088-106>120-020500-
SOUTHEAST KENTUCKY

CITY           SKY/WX    TMP DP  RH WIND       PRES   REMARKS
JACKSON        FOG       45  44  97 SW6       30.25S VSB 1/2
LONDON         CLOUDY    47  42  83 SW6       30.27S
SOMERSET       DRZL/FOG  43  43 100 CALM      30.30S VSB 3/4
MIDDLESBORO    FOG       35  35 100 CALM      30.30F VSB 1/4
MONTICELLO     FOG       49  49 100 SW9       30.32R VSB 1
$$




USA.gov is the U.S. government's official web portal to all federal, state and local government web resources and services.